FW6253 Weather Reports


Display with metric or nautical units.
time (UTC)temp
F
wind
direction
speed
MPH
gust
MPH
rain 1hr
in
rain 24hr
in
rain mn
in
humidity
%
barometer
mb
20260505054554 70 132 3.0 10.0 0.00 0.00 0.00 87 1009.7
20260505054055 70 145 3.0 16.0 0.00 0.00 0.00 87 1009.6
20260505053554 70 177 3.0 16.0 0.00 0.00 0.00 87 1009.7
20260505053057 70 123 4.0 16.0 0.00 0.00 0.00 87 1009.6
20260505052555 70 194 5.0 14.0 0.00 0.00 0.00 87 1009.5
20260505052051 70 131 6.0 14.0 0.00 0.00 0.00 87 1009.4
20260505051554 70 173 3.0 14.0 0.00 0.00 0.00 86 1009.5
20260505051053 70 198 4.0 14.0 0.00 0.00 0.00 87 1009.5
20260505050554 70 159 5.0 14.0 0.00 0.00 0.00 86 1009.4
20260505050106 71 221 5.0 11.0 0.00 0.00 0.00 86 1009.4
20260505041602 72 242 4.0 9.0 0.00 0.00 0.00 84 1009.7
20260505041051 72 216 1.0 9.0 0.00 0.00 0.00 83 1009.8
20260505040554 72 151 3.0 12.0 0.00 0.00 0.00 83 1009.7
20260505035557 72 207 4.0 11.0 0.00 0.00 0.00 82 1009.7
20260505035054 72 178 4.0 12.0 0.00 0.00 0.00 82 1009.6
20260505034608 73 179 4.0 12.0 0.00 0.00 0.00 82 1009.4
20260505034054 73 148 3.0 11.0 0.00 0.00 0.00 81 1009.4
20260505033554 73 148 3.0 10.0 0.00 0.00 0.00 81 1009.4
20260505033054 73 198 3.0 12.0 0.00 0.00 0.00 80 1009.4
20260505032551 73 212 4.0 12.0 0.00 0.00 0.00 80 1009.5
20260505032053 73 180 4.0 10.0 0.00 0.00 0.00 80 1009.5
20260505031551 73 175 4.0 10.0 0.00 0.00 0.00 79 1009.4
20260505031051 73 159 2.0 11.0 0.00 0.00 0.00 78 1009.5
20260505030554 74 202 3.0 11.0 0.00 0.00 0.00 77 1009.4
20260505030101 74 121 3.0 9.0 0.00 0.00 0.00 77 1009.4
20260505025550 74 186 3.0 9.0 0.00 0.00 0.00 77 1009.5
20260505025052 74 162 3.0 9.0 0.00 0.00 0.00 77 1009.5
20260505024608 74 190 3.0 9.0 0.00 0.00 0.00 76 1009.6
20260505024051 74 166 2.0 9.0 0.00 0.00 0.00 76 1009.6
20260505023551 74 184 2.0 9.0 0.00 0.00 0.00 76 1009.5
20260505023052 74 184 2.0 8.0 0.00 0.00 0.00 76 1009.5
20260505022552 74 155 2.0 7.0 0.00 0.00 0.00 75 1009.4
20260505022052 74 188 2.0 7.0 0.00 0.00 0.00 75 1009.5
20260505021555 75 207 2.0 9.0 0.00 0.00 0.00 75 1009.4
20260505021051 75 170 3.0 9.0 0.00 0.00 0.00 75 1009.3
20260505020552 75 183 2.0 10.0 0.00 0.00 0.00 75 1009.1
20260505020104 75 170 3.0 10.0 0.00 0.00 0.00 74 1009.1
20260505015553 75 161 2.0 10.0 0.00 0.00 0.00 74 1009.0
20260505015055 75 154 4.0 10.0 0.00 0.00 0.00 73 1009.1
20260505014553 75 159 3.0 9.0 0.00 0.00 0.00 73 1009.0
20260505014052 76 190 3.0 9.0 0.00 0.00 0.00 73 1008.9
20260505013548 76 161 2.0 9.0 0.00 0.00 0.00 73 1008.9
20260505013053 76 169 3.0 9.0 0.00 0.00 0.00 72 1009.0
20260505012552 76 164 3.0 10.0 0.00 0.00 0.00 72 1009.0
20260505012052 76 213 3.0 10.0 0.00 0.00 0.00 71 1009.0
20260505011557 76 212 3.0 9.0 0.00 0.00 0.00 71 1008.9
20260505011052 76 190 2.0 12.0 0.00 0.00 0.00 71 1008.8
20260505010552 77 207 5.0 12.0 0.00 0.00 0.00 70 1008.8
20260505010108 77 192 4.0 9.0 0.00 0.00 0.00 70 1008.8
20260505005552 77 221 3.0 9.0 0.00 0.00 0.00 70 1008.9
20260505005052 77 191 2.0 7.0 0.00 0.00 0.00 70 1008.8
20260505004602 77 182 2.0 10.0 0.00 0.00 0.00 69 1008.8
20260505004051 77 161 3.0 11.0 0.00 0.00 0.00 69 1008.7
20260505003551 77 247 4.0 11.0 0.00 0.00 0.00 68 1008.6
20260505003055 78 152 3.0 11.0 0.00 0.00 0.00 68 1008.6
20260505002550 78 117 3.0 13.0 0.00 0.00 0.00 68 1008.7
20260505002051 78 187 5.0 13.0 0.00 0.00 0.00 67 1008.7
20260505001552 78 202 3.0 12.0 0.00 0.00 0.00 67 1008.8
20260505001051 78 196 4.0 12.0 0.00 0.00 0.00 67 1008.7
20260505000555 78 168 3.0 10.0 0.00 0.00 0.00 67 1008.7
20260505000112 78 159 4.0 10.0 0.00 0.00 0.00 66 1008.8
20260504235554 78 185 2.0 12.0 0.00 0.00 0.00 66 1008.9
20260504235054 78 150 3.0 12.0 0.00 0.00 0.00 66 1009.1
20260504234554 79 190 6.0 12.0 0.00 0.00 0.00 65 1008.9
20260504234053 79 182 4.0 12.0 0.00 0.00 0.00 65 1009.1
20260504233554 79 162 4.0 12.0 0.00 0.00 0.00 65 1009.1
20260504233053 79 155 2.0 12.0 0.00 0.00 0.00 66 1009.4
20260504232554 79 202 3.0 12.0 0.00 0.00 0.00 66 1009.3
20260504232054 79 168 5.0 12.0 0.00 0.00 0.00 65 1009.4
20260504231621 79 169 3.0 9.0 0.00 0.00 0.00 65 1009.5
20260504231053 79 207 3.0 14.0 0.00 0.00 0.00 65 1009.6
20260504230555 79 200 5.0 14.0 0.00 0.00 0.00 65 1009.6
20260504230051 79 186 5.0 12.0 0.00 0.00 0.00 65 1009.6
20260504225556 79 167 3.0 19.0 0.00 0.00 0.00 65 1009.7
20260504225054 79 218 7.0 19.0 0.00 0.00 0.00 64 1009.8
20260504224552 79 196 4.0 11.0 0.00 0.00 0.00 64 1010.0
20260504224051 79 210 5.0 11.0 0.00 0.00 0.00 64 1010.1
20260504223552 79 173 4.0 12.0 0.00 0.00 0.00 65 1010.0
20260504223054 79 165 3.0 14.0 0.00 0.00 0.00 64 1010.1
20260504222554 79 204 5.0 14.0 0.00 0.00 0.00 64 1010.1
20260504222053 79 134 5.0 15.0 0.00 0.00 0.00 64 1010.1
20260504221641 79 271 4.0 17.0 0.00 0.00 0.00 64 1010.0
20260504221053 79 162 6.0 17.0 0.00 0.00 0.00 64 1010.2
20260504220552 79 211 3.0 11.0 0.00 0.00 0.00 64 1010.2
20260504220056 79 173 5.0 15.0 0.00 0.00 0.00 63 1010.0
20260504215554 79 184 5.0 15.0 0.00 0.00 0.00 64 1010.0
20260504215051 79 167 7.0 15.0 0.00 0.00 0.00 63 1010.0
20260504214556 79 164 5.0 14.0 0.00 0.00 0.00 64 1010.1
20260504214052 79 84 5.0 14.0 0.00 0.00 0.00 64 1010.2
20260504213554 79 213 4.0 11.0 0.00 0.00 0.00 64 1010.2
20260504213101 79 157 3.0 12.0 0.00 0.00 0.00 64 1010.3
20260504212554 79 202 5.0 13.0 0.00 0.00 0.00 64 1010.4
20260504212054 79 169 5.0 13.0 0.00 0.00 0.00 64 1010.6
20260504211556 79 128 6.0 15.0 0.00 0.00 0.00 65 1010.7
20260504211054 79 193 3.0 15.0 0.00 0.00 0.00 63 1010.9
20260504210555 79 149 5.0 14.0 0.00 0.00 0.00 64 1010.9
20260504210058 79 158 5.0 13.0 0.00 0.00 0.00 64 1011.0
20260504205553 79 163 4.0 15.0 0.00 0.00 0.00 64 1011.2
20260504205054 79 199 5.0 16.0 0.00 0.00 0.00 64 1011.1
20260504204556 79 228 4.0 16.0 0.00 0.00 0.00 64 1011.2
20260504204053 79 213 4.0 10.0 0.00 0.00 0.00 65 1011.3
20260504203556 79 215 3.0 12.0 0.00 0.00 0.00 65 1011.3
20260504203056 78 204 4.0 13.0 0.00 0.00 0.00 65 1011.3
20260504202551 79 190 5.0 13.0 0.00 0.00 0.00 64 1011.5
20260504202055 79 200 5.0 10.0 0.00 0.00 0.00 64 1011.5
20260504201554 79 201 3.0 12.0 0.00 0.00 0.00 65 1011.6
20260504201054 78 180 4.0 12.0 0.00 0.00 0.00 65 1011.6
20260504200555 78 153 3.0 10.0 0.00 0.00 0.00 66 1011.7
20260504200056 78 200 4.0 13.0 0.00 0.00 0.00 65 1011.8
20260504195555 78 194 4.0 15.0 0.00 0.00 0.00 65 1011.9
20260504195057 79 204 4.0 15.0 0.00 0.00 0.00 63 1011.9
20260504194602 79 202 4.0 16.0 0.00 0.00 0.00 64 1012.0
20260504194054 79 215 4.0 16.0 0.00 0.00 0.00 65 1011.8
20260504193554 78 175 5.0 12.0 0.00 0.00 0.00 65 1011.9
20260504193055 78 213 5.0 12.0 0.00 0.00 0.00 65 1012.0
20260504192554 78 172 3.0 12.0 0.00 0.00 0.00 65 1012.1
20260504192054 79 162 3.0 12.0 0.00 0.00 0.00 65 1012.2
20260504191615 79 136 3.0 10.0 0.00 0.00 0.00 63 1012.2
20260504191051 79 200 4.0 9.0 0.00 0.00 0.00 65 1012.3
20260504190554 78 171 4.0 16.0 0.00 0.00 0.00 64 1012.2
20260504190058 79 226 4.0 17.0 0.00 0.00 0.00 64 1012.3
20260504185555 79 246 5.0 17.0 0.00 0.00 0.00 63 1012.4
20260504185054 78 215 3.0 14.0 0.00 0.00 0.00 65 1012.3
20260504184603 78 148 2.0 11.0 0.00 0.00 0.00 64 1012.5
20260504184056 79 163 4.0 12.0 0.00 0.00 0.00 63 1012.4
20260504183555 79 253 6.0 12.0 0.00 0.00 0.00 63 1012.8
20260504183054 79 169 3.0 9.0 0.00 0.00 0.00 63 1012.9
20260504182557 79 127 4.0 13.0 0.00 0.00 0.00 63 1012.9
20260504182053 79 198 4.0 14.0 0.00 0.00 0.00 63 1012.9
20260504181555 79 195 7.0 14.0 0.00 0.00 0.00 63 1012.9
20260504181055 79 161 4.0 17.0 0.00 0.00 0.00 64 1013.0
20260504180556 79 223 6.0 17.0 0.00 0.00 0.00 63 1013.0
20260504180054 79 207 5.0 15.0 0.00 0.00 0.00 63 1013.1
20260504175553 79 169 6.0 15.0 0.00 0.00 0.00 63 1013.2
20260504175050 79 198 5.0 14.0 0.00 0.00 0.00 62 1013.1
20260504174553 78 205 4.0 14.0 0.00 0.00 0.00 65 1013.2
20260504174051 78 157 5.0 14.0 0.00 0.00 0.00 65 1013.3
20260504173558 78 223 6.0 16.0 0.00 0.00 0.00 65 1013.2
20260504173051 78 203 5.0 16.0 0.00 0.00 0.00 66 1013.3
20260504172553 78 191 6.0 13.0 0.00 0.00 0.00 64 1013.4
20260504172059 77 165 4.0 13.0 0.00 0.00 0.00 66 1013.6
20260504171553 77 120 4.0 17.0 0.00 0.00 0.00 66 1013.6
20260504171054 76 175 5.0 17.0 0.00 0.00 0.00 66 1013.7
20260504170554 76 194 6.0 15.0 0.00 0.00 0.00 67 1013.7
20260504151053 68 203 6.0 19.0 0.00 0.00 0.00 81 1014.7
20260504150553 68 171 6.0 19.0 0.00 0.00 0.00 81 1014.7
20260504141056 66 138 3.0 10.0 0.00 0.00 0.00 81 1014.6
20260504140553 66 163 3.0 10.0 0.00 0.00 0.00 82 1014.6
20260504140104 65 157 3.0 11.0 0.00 0.00 0.00 83 1014.5
20260504130550 63 167 0.0 5.0 0.00 0.00 0.00 84 1014.6
20260504110551 62 0 1.0 7.0 0.00 0.00 0.00 83 1014.2
20260504100554 62 167 1.0 5.0 0.00 0.00 0.00 82 1014.2
20260504081555 63 199 3.0 7.0 0.00 0.00 0.00 79 1015.0
20260504081053 63 209 2.0 5.0 0.00 0.00 0.00 79 1015.0
20260504080552 63 174 2.0 5.0 0.00 0.00 0.00 79 1015.1
20260504060107 65 157 1.0 9.0 0.00 0.00 0.00 73 1016.5